| time (UTC) | temp F | wind direction | speed MPH | gust MPH | rain 1hr in | rain 24hr in | rain mn in | humidity % | barometer mb |
| 20260904075810 | 70 | 175 | 6.0 | 15.0 | 0.00 | 0.01 | 0.00 | 85 | 1011.4 |
| 20260904075306 | 70 | 204 | 6.0 | 12.0 | 0.00 | 0.02 | 0.00 | 85 | 1011.3 |
| 20260904074756 | 70 | 222 | 7.0 | 13.0 | 0.00 | 0.02 | 0.00 | 85 | 1011.4 |
| 20260904074248 | 70 | 247 | 6.0 | 13.0 | 0.00 | 0.02 | 0.00 | 85 | 1011.3 |
| 20260904073731 | 70 | 201 | 6.0 | 19.0 | 0.00 | 0.02 | 0.00 | 85 | 1011.3 |
| 20260904073236 | 70 | 233 | 8.0 | 19.0 | 0.00 | 0.02 | 0.00 | 85 | 1011.2 |
| 20260904072823 | 70 | 253 | 9.0 | 20.0 | 0.00 | 0.02 | 0.00 | 85 | 1011.2 |
| 20260904072314 | 70 | 189 | 9.0 | 20.0 | 0.00 | 0.02 | 0.00 | 85 | 1011.3 |
| 20260904071807 | 70 | 195 | 7.0 | 17.0 | 0.00 | 0.02 | 0.00 | 86 | 1011.3 |
| 20260904071257 | 70 | 202 | 6.0 | 17.0 | 0.00 | 0.02 | 0.00 | 86 | 1011.4 |
| 20260904070750 | 69 | 203 | 7.0 | 15.0 | 0.00 | 0.02 | 0.00 | 86 | 1011.4 |
| 20260904070243 | 69 | 211 | 7.0 | 16.0 | 0.00 | 0.02 | 0.00 | 86 | 1011.5 |
| 20260904065734 | 69 | 212 | 7.0 | 16.0 | 0.00 | 0.02 | 0.00 | 86 | 1011.5 |
| 20260904065226 | 69 | 212 | 7.0 | 20.0 | 0.00 | 0.02 | 0.00 | 87 | 1011.5 |
| 20260904064722 | 69 | 224 | 7.0 | 20.0 | 0.00 | 0.02 | 0.00 | 87 | 1011.5 |
| 20260904064310 | 69 | 216 | 6.0 | 15.0 | 0.00 | 0.02 | 0.00 | 87 | 1011.5 |
| 20260904063815 | 69 | 184 | 5.0 | 12.0 | 0.00 | 0.02 | 0.00 | 87 | 1011.6 |
| 20260904063253 | 69 | 189 | 5.0 | 11.0 | 0.00 | 0.02 | 0.00 | 87 | 1011.6 |
| 20260904062742 | 69 | 181 | 5.0 | 12.0 | 0.00 | 0.02 | 0.00 | 87 | 1011.6 |
| 20260904062234 | 69 | 189 | 5.0 | 12.0 | 0.00 | 0.02 | 0.00 | 87 | 1011.7 |
| 20260904062125 | 69 | 224 | 6.0 | 11.0 | 0.00 | 0.02 | 0.00 | 87 | 1011.8 |
| 20260904061220 | 69 | 174 | 6.0 | 11.0 | 0.00 | 0.02 | 0.00 | 87 | 1011.8 |
| 20260904060808 | 68 | 255 | 6.0 | 11.0 | 0.00 | 0.02 | 0.00 | 87 | 1011.9 |
| 20260904060259 | 68 | 214 | 6.0 | 11.0 | 0.00 | 0.02 | 0.00 | 88 | 1012.0 |
| 20260904055749 | 68 | 176 | 5.0 | 11.0 | 0.00 | 0.02 | 0.00 | 88 | 1012.1 |
| 20260904055242 | 68 | 214 | 5.0 | 12.0 | 0.00 | 0.02 | 0.00 | 88 | 1012.1 |
| 20260904054734 | 68 | 206 | 5.0 | 13.0 | 0.00 | 0.02 | 0.00 | 88 | 1012.1 |
| 20260904054226 | 68 | 210 | 5.0 | 13.0 | 0.00 | 0.02 | 0.00 | 88 | 1012.2 |
| 20260904053719 | 68 | 246 | 6.0 | 16.0 | 0.00 | 0.02 | 0.00 | 88 | 1012.2 |
| 20260904053208 | 68 | 206 | 6.0 | 16.0 | 0.00 | 0.02 | 0.00 | 88 | 1012.2 |
| 20260904052759 | 68 | 241 | 6.0 | 13.0 | 0.00 | 0.02 | 0.00 | 89 | 1012.3 |
| 20260904052250 | 67 | 207 | 6.0 | 13.0 | 0.00 | 0.02 | 0.00 | 89 | 1012.4 |
| 20260904051743 | 67 | 228 | 6.0 | 12.0 | 0.00 | 0.02 | 0.00 | 89 | 1012.4 |
| 20260904051235 | 67 | 197 | 6.0 | 11.0 | 0.00 | 0.02 | 0.00 | 89 | 1012.5 |
| 20260904050727 | 67 | 197 | 5.0 | 11.0 | 0.00 | 0.02 | 0.00 | 90 | 1012.5 |
| 20260904050216 | 67 | 182 | 5.0 | 12.0 | 0.00 | 0.02 | 0.00 | 90 | 1012.5 |
| 20260904045707 | 67 | 178 | 5.0 | 12.0 | 0.00 | 0.02 | 0.00 | 90 | 1012.5 |
| 20260904045259 | 67 | 196 | 6.0 | 16.0 | 0.00 | 0.02 | 0.00 | 90 | 1012.6 |
| 20260904045052 | 67 | 179 | 6.0 | 16.0 | 0.00 | 0.02 | 0.00 | 90 | 1012.6 |
| 20260904044241 | 67 | 206 | 5.0 | 12.0 | 0.00 | 0.02 | 0.00 | 89 | 1012.7 |
| 20260904043732 | 67 | 218 | 6.0 | 12.0 | 0.00 | 0.02 | 0.00 | 89 | 1012.7 |
| 20260904043223 | 67 | 247 | 6.0 | 12.0 | 0.00 | 0.02 | 0.00 | 89 | 1012.7 |
| 20260904042712 | 67 | 216 | 5.0 | 13.0 | 0.00 | 0.02 | 0.00 | 89 | 1012.7 |
| 20260904042205 | 67 | 212 | 5.0 | 13.0 | 0.00 | 0.02 | 0.00 | 89 | 1012.7 |
| 20260904041756 | 67 | 205 | 5.0 | 13.0 | 0.00 | 0.02 | 0.00 | 89 | 1012.8 |
| 20260904041244 | 67 | 189 | 5.0 | 13.0 | 0.00 | 0.02 | 0.00 | 89 | 1012.7 |
| 20260904040737 | 68 | 187 | 5.0 | 10.0 | 0.00 | 0.02 | 0.00 | 89 | 1012.7 |
| 20260904040226 | 68 | 186 | 5.0 | 10.0 | 0.00 | 0.02 | 0.00 | 89 | 1012.7 |
| 20260904040019 | 68 | 175 | 4.0 | 9.0 | 0.00 | 0.02 | 0.00 | 89 | 1012.8 |
| 20260904035209 | 68 | 197 | 5.0 | 8.0 | 0.00 | 0.02 | 0.00 | 89 | 1012.9 |
| 20260904034800 | 68 | 201 | 4.0 | 10.0 | 0.00 | 0.02 | 0.00 | 89 | 1013.0 |
| 20260904034251 | 68 | 247 | 5.0 | 13.0 | 0.00 | 0.02 | 0.00 | 89 | 1013.0 |
| 20260904033742 | 68 | 241 | 5.0 | 13.0 | 0.00 | 0.02 | 0.00 | 89 | 1013.0 |
| 20260904033631 | 68 | 191 | 6.0 | 13.0 | 0.00 | 0.02 | 0.00 | 89 | 1013.0 |
| 20260904033024 | 68 | 241 | 6.0 | 13.0 | 0.00 | 0.02 | 0.00 | 89 | 1013.1 |
| 20260904032213 | 68 | 180 | 6.0 | 13.0 | 0.00 | 0.02 | 0.00 | 89 | 1013.2 |
| 20260904031707 | 68 | 214 | 5.0 | 11.0 | 0.00 | 0.02 | 0.00 | 89 | 1013.2 |
| 20260904031256 | 68 | 199 | 5.0 | 13.0 | 0.00 | 0.02 | 0.00 | 89 | 1013.2 |
| 20260904030746 | 68 | 259 | 6.0 | 13.0 | 0.00 | 0.02 | 0.00 | 89 | 1013.2 |
| 20260904030236 | 68 | 186 | 5.0 | 11.0 | 0.00 | 0.02 | 0.00 | 89 | 1013.3 |
| 20260904025730 | 68 | 189 | 5.0 | 12.0 | 0.00 | 0.02 | 0.00 | 89 | 1013.3 |
| 20260904025219 | 68 | 166 | 5.0 | 12.0 | 0.00 | 0.02 | 0.00 | 89 | 1013.3 |
| 20260904025106 | 68 | 251 | 5.0 | 14.0 | 0.00 | 0.02 | 0.00 | 89 | 1013.3 |
| 20260904024602 | 68 | 222 | 6.0 | 14.0 | 0.00 | 0.02 | 0.00 | 89 | 1013.4 |
| 20260904023949 | 68 | 208 | 5.0 | 13.0 | 0.00 | 0.02 | 0.00 | 90 | 1013.5 |
| 20260904023749 | 68 | 208 | 5.0 | 13.0 | 0.00 | 0.02 | 0.00 | 89 | 1013.4 |
| 20260904022735 | 68 | 197 | 5.0 | 12.0 | 0.00 | 0.02 | 0.00 | 90 | 1013.7 |
| 20260904022226 | 68 | 241 | 6.0 | 12.0 | 0.00 | 0.02 | 0.00 | 90 | 1013.7 |
| 20260904021715 | 68 | 190 | 6.0 | 12.0 | 0.00 | 0.02 | 0.00 | 90 | 1013.6 |
| 20260904021505 | 68 | 140 | 6.0 | 12.0 | 0.00 | 0.02 | 0.00 | 90 | 1013.8 |
| 20260904021305 | 68 | 192 | 6.0 | 11.0 | 0.00 | 0.02 | 0.00 | 90 | 1013.7 |
| 20260904020251 | 68 | 222 | 5.0 | 12.0 | 0.00 | 0.02 | 0.00 | 90 | 1014.0 |
| 20260904015741 | 68 | 205 | 4.0 | 9.0 | 0.00 | 0.02 | 0.00 | 90 | 1014.1 |
| 20260904015234 | 67 | 187 | 4.0 | 9.0 | 0.00 | 0.02 | 0.00 | 90 | 1014.2 |
| 20260904014723 | 67 | 197 | 4.0 | 9.0 | 0.00 | 0.02 | 0.00 | 90 | 1014.2 |
| 20260904014610 | 67 | 229 | 4.0 | 9.0 | 0.00 | 0.02 | 0.00 | 90 | 1014.3 |
| 20260904013704 | 68 | 228 | 5.0 | 11.0 | 0.00 | 0.02 | 0.00 | 90 | 1014.3 |
| 20260904013258 | 68 | 214 | 5.0 | 11.0 | 0.00 | 0.02 | 0.00 | 90 | 1014.3 |
| 20260904012750 | 68 | 192 | 5.0 | 10.0 | 0.00 | 0.02 | 0.00 | 91 | 1014.4 |
| 20260904012242 | 68 | 210 | 4.0 | 9.0 | 0.00 | 0.02 | 0.00 | 91 | 1014.4 |
| 20260904011734 | 68 | 201 | 4.0 | 9.0 | 0.00 | 0.02 | 0.00 | 91 | 1014.6 |
| 20260904011239 | 68 | 176 | 5.0 | 8.0 | 0.00 | 0.02 | 0.00 | 91 | 1014.6 |
| 20260904010718 | 68 | 206 | 5.0 | 9.0 | 0.00 | 0.02 | 0.00 | 91 | 1014.6 |
| 20260904010210 | 68 | 235 | 5.0 | 12.0 | 0.00 | 0.02 | 0.00 | 91 | 1014.4 |
| 20260904005704 | 68 | 210 | 5.0 | 12.0 | 0.00 | 0.02 | 0.00 | 91 | 1014.5 |
| 20260904005256 | 68 | 200 | 5.0 | 10.0 | 0.00 | 0.02 | 0.00 | 91 | 1014.5 |
| 20260904004747 | 68 | 187 | 5.0 | 10.0 | 0.00 | 0.02 | 0.00 | 90 | 1014.6 |
| 20260904004240 | 68 | 171 | 5.0 | 11.0 | 0.00 | 0.02 | 0.00 | 90 | 1014.6 |
| 20260904003728 | 68 | 205 | 5.0 | 11.0 | 0.00 | 0.02 | 0.00 | 90 | 1014.7 |
| 20260904003218 | 68 | 170 | 5.0 | 12.0 | 0.00 | 0.02 | 0.00 | 90 | 1014.8 |
| 20260904002710 | 68 | 197 | 5.0 | 12.0 | 0.00 | 0.02 | 0.00 | 90 | 1014.8 |
| 20260904002204 | 69 | 267 | 5.0 | 12.0 | 0.00 | 0.02 | 0.00 | 90 | 1014.9 |
| 20260904001753 | 69 | 147 | 5.0 | 14.0 | 0.00 | 0.02 | 0.00 | 90 | 1014.9 |
| 20260904001242 | 68 | 230 | 5.0 | 14.0 | 0.00 | 0.02 | 0.00 | 90 | 1014.8 |
| 20260904000830 | 68 | 202 | 5.0 | 13.0 | 0.00 | 0.02 | 0.00 | 90 | 1014.9 |
| 20260904000631 | 68 | 217 | 5.0 | 13.0 | 0.00 | 0.02 | 0.00 | 90 | 1015.0 |
| 20260903235813 | 68 | 292 | 4.0 | 13.0 | 0.00 | 0.02 | 0.00 | 90 | 1015.0 |
| 20260903235318 | 68 | 210 | 4.0 | 10.0 | 0.00 | 0.02 | 0.00 | 90 | 1015.1 |
| 20260903234756 | 68 | 258 | 5.0 | 13.0 | 0.00 | 0.02 | 0.00 | 90 | 1015.2 |
| 20260903234348 | 68 | 191 | 5.0 | 13.0 | 0.00 | 0.02 | 0.00 | 90 | 1015.2 |
| 20260903234149 | 68 | 264 | 6.0 | 11.0 | 0.00 | 0.02 | 0.00 | 90 | 1015.3 |
| 20260903233328 | 68 | 212 | 5.0 | 11.0 | 0.00 | 0.02 | 0.00 | 91 | 1015.3 |
| 20260903233129 | 68 | 199 | 4.0 | 11.0 | 0.00 | 0.02 | 0.00 | 91 | 1015.3 |
| 20260903232311 | 68 | 226 | 4.0 | 9.0 | 0.00 | 0.02 | 0.00 | 90 | 1015.3 |
| 20260903231905 | 68 | 227 | 4.0 | 9.0 | 0.00 | 0.02 | 0.00 | 90 | 1015.6 |
| 20260903231803 | 68 | 187 | 4.0 | 9.0 | 0.00 | 0.02 | 0.00 | 90 | 1015.3 |
| 20260903231256 | 68 | 170 | 4.0 | 9.0 | 0.00 | 0.02 | 0.00 | 90 | 1015.4 |
| 20260903231049 | 68 | 182 | 5.0 | 11.0 | 0.00 | 0.02 | 0.00 | 90 | 1015.5 |
| 20260903230540 | 68 | 190 | 5.0 | 11.0 | 0.00 | 0.02 | 0.00 | 90 | 1015.5 |
| 20260903225326 | 68 | 222 | 5.0 | 12.0 | 0.00 | 0.02 | 0.00 | 90 | 1015.6 |
| 20260903225126 | 68 | 197 | 5.0 | 12.0 | 0.00 | 0.02 | 0.00 | 90 | 1015.7 |
| 20260903224618 | 68 | 217 | 5.0 | 11.0 | 0.00 | 0.02 | 0.00 | 90 | 1015.7 |
| 20260903224107 | 68 | 183 | 4.0 | 11.0 | 0.00 | 0.02 | 0.00 | 90 | 1015.6 |
| 20260903223345 | 68 | 180 | 5.0 | 11.0 | 0.00 | 0.02 | 0.00 | 90 | 1015.7 |
| 20260903222836 | 68 | 212 | 4.0 | 10.0 | 0.00 | 0.02 | 0.00 | 90 | 1015.8 |
| 20260903222329 | 68 | 217 | 4.0 | 10.0 | 0.00 | 0.02 | 0.00 | 90 | 1015.9 |
| 20260903221820 | 68 | 196 | 4.0 | 8.0 | 0.00 | 0.02 | 0.00 | 90 | 1016.0 |
| 20260903221312 | 68 | 224 | 3.0 | 8.0 | 0.00 | 0.02 | 0.00 | 90 | 1015.9 |
| 20260903220819 | 68 | 230 | 4.0 | 11.0 | 0.00 | 0.02 | 0.00 | 90 | 1016.0 |
| 20260903220257 | 68 | 198 | 5.0 | 11.0 | 0.00 | 0.02 | 0.00 | 91 | 1015.9 |
| 20260903215845 | 68 | 208 | 5.0 | 11.0 | 0.00 | 0.02 | 0.02 | 91 | 1015.9 |
| 20260903215336 | 68 | 200 | 5.0 | 11.0 | 0.00 | 0.02 | 0.02 | 91 | 1015.9 |
| 20260903214830 | 68 | 187 | 5.0 | 11.0 | 0.00 | 0.02 | 0.02 | 91 | 1015.9 |
| 20260903214321 | 68 | 203 | 5.0 | 10.0 | 0.00 | 0.02 | 0.02 | 91 | 1016.0 |
| 20260903213811 | 68 | 203 | 5.0 | 10.0 | 0.00 | 0.02 | 0.02 | 92 | 1016.3 |
| 20260903213302 | 68 | 213 | 4.0 | 10.0 | 0.00 | 0.02 | 0.02 | 92 | 1016.3 |
| 20260903212757 | 68 | 208 | 3.0 | 8.0 | 0.00 | 0.02 | 0.02 | 92 | 1016.5 |
| 20260903212250 | 68 | 209 | 3.0 | 8.0 | 0.00 | 0.02 | 0.02 | 92 | 1016.4 |
| 20260903211845 | 68 | 241 | 3.0 | 8.0 | 0.00 | 0.02 | 0.02 | 92 | 1016.5 |
| 20260903211742 | 68 | 180 | 3.0 | 8.0 | 0.00 | 0.02 | 0.02 | 92 | 1016.5 |
| 20260903210821 | 68 | 187 | 3.0 | 7.0 | 0.00 | 0.02 | 0.02 | 92 | 1016.5 |
| 20260903210312 | 68 | 213 | 2.0 | 10.0 | 0.00 | 0.02 | 0.02 | 92 | 1016.5 |
| 20260903205804 | 68 | 205 | 3.0 | 10.0 | 0.00 | 0.02 | 0.02 | 92 | 1016.5 |
| 20260903205301 | 68 | 195 | 3.0 | 7.0 | 0.00 | 0.02 | 0.02 | 91 | 1016.4 |
| 20260903205256 | 68 | 202 | 3.0 | 6.0 | 0.00 | 0.02 | 0.02 | 92 | 1016.5 |
| 20260903204238 | 68 | 203 | 4.0 | 9.0 | 0.00 | 0.02 | 0.02 | 91 | 1016.5 |
| 20260903203737 | 68 | 205 | 5.0 | 9.0 | 0.00 | 0.02 | 0.02 | 91 | 1016.5 |
| 20260903203323 | 68 | 201 | 4.0 | 9.0 | 0.00 | 0.02 | 0.02 | 91 | 1016.4 |
| 20260903202823 | 69 | 191 | 5.0 | 14.0 | 0.00 | 0.02 | 0.02 | 90 | 1016.5 |
| 20260903202816 | 68 | 259 | 4.0 | 11.0 | 0.00 | 0.02 | 0.02 | 90 | 1016.5 |
| 20260903201759 | 69 | 193 | 6.0 | 14.0 | 0.00 | 0.02 | 0.02 | 89 | 1016.5 |
| 20260903201250 | 69 | 250 | 5.0 | 12.0 | 0.00 | 0.02 | 0.02 | 89 | 1016.5 |
| 20260903200754 | 69 | 192 | 4.0 | 9.0 | 0.00 | 0.02 | 0.02 | 88 | 1016.5 |
| 20260903200237 | 69 | 240 | 4.0 | 12.0 | 0.00 | 0.02 | 0.02 | 87 | 1016.5 |
| 20260903200232 | 69 | 235 | 5.0 | 12.0 | 0.00 | 0.02 | 0.02 | 88 | 1016.5 |
| 20260903195220 | 69 | 185 | 4.0 | 10.0 | 0.00 | 0.02 | 0.02 | 87 | 1016.5 |
| 20260903194812 | 69 | 187 | 4.0 | 10.0 | 0.00 | 0.02 | 0.02 | 87 | 1016.5 |
| 20260903194307 | 69 | 247 | 4.0 | 9.0 | 0.00 | 0.02 | 0.02 | 87 | 1016.4 |
| 20260903193755 | 69 | 199 | 4.0 | 11.0 | 0.00 | 0.02 | 0.02 | 87 | 1016.4 |
| 20260903193247 | 70 | 252 | 5.0 | 11.0 | 0.00 | 0.02 | 0.02 | 86 | 1016.5 |
| 20260903192738 | 70 | 184 | 4.0 | 9.0 | 0.00 | 0.02 | 0.02 | 86 | 1016.5 |
| 20260903192230 | 70 | 218 | 3.0 | 8.0 | 0.00 | 0.02 | 0.02 | 85 | 1016.5 |
| 20260903191722 | 70 | 240 | 2.0 | 8.0 | 0.00 | 0.02 | 0.02 | 85 | 1016.4 |
| 20260903191217 | 70 | 255 | 3.0 | 8.0 | 0.00 | 0.02 | 0.02 | 85 | 1016.4 |
| 20260903190710 | 70 | 186 | 4.0 | 9.0 | 0.00 | 0.02 | 0.02 | 84 | 1016.3 |
| 20260903190213 | 70 | 166 | 4.0 | 9.0 | 0.00 | 0.02 | 0.02 | 84 | 1016.4 |
| 20260903185658 | 70 | 239 | 4.0 | 9.0 | 0.00 | 0.02 | 0.02 | 84 | 1016.3 |
| 20260903185247 | 70 | 216 | 4.0 | 9.0 | 0.00 | 0.02 | 0.02 | 84 | 1016.3 |
| 20260903184742 | 70 | 205 | 4.0 | 8.0 | 0.00 | 0.02 | 0.02 | 84 | 1016.4 |
| 20260903184231 | 70 | 163 | 4.0 | 8.0 | 0.00 | 0.02 | 0.02 | 84 | 1016.3 |
| 20260903183724 | 70 | 183 | 3.0 | 7.0 | 0.00 | 0.02 | 0.02 | 83 | 1016.5 |
| 20260903183220 | 70 | 211 | 3.0 | 7.0 | 0.00 | 0.02 | 0.02 | 83 | 1016.6 |
| 20260903182709 | 71 | 212 | 2.0 | 5.0 | 0.00 | 0.02 | 0.02 | 83 | 1016.6 |
| 20260903182202 | 71 | 193 | 2.0 | 6.0 | 0.00 | 0.02 | 0.02 | 82 | 1016.4 |
| 20260903181656 | 71 | 181 | 2.0 | 7.0 | 0.00 | 0.02 | 0.02 | 82 | 1016.5 |
| 20260903181153 | 71 | 187 | 3.0 | 7.0 | 0.00 | 0.02 | 0.02 | 81 | 1016.6 |
| 20260903181149 | 71 | 218 | 2.0 | 7.0 | 0.00 | 0.02 | 0.02 | 82 | 1016.7 |
| 20260903180138 | 71 | 213 | 3.0 | 9.0 | 0.00 | 0.02 | 0.02 | 81 | 1016.5 |
| 20260903175728 | 71 | 224 | 4.0 | 9.0 | 0.00 | 0.02 | 0.02 | 81 | 1016.5 |
| 20260903175220 | 71 | 221 | 4.0 | 9.0 | 0.00 | 0.02 | 0.02 | 81 | 1016.5 |
| 20260903174718 | 72 | 222 | 3.0 | 12.0 | 0.00 | 0.02 | 0.02 | 80 | 1016.5 |
| 20260903174713 | 72 | 217 | 3.0 | 9.0 | 0.00 | 0.02 | 0.02 | 80 | 1016.5 |
| 20260903173658 | 72 | 195 | 3.0 | 12.0 | 0.00 | 0.02 | 0.02 | 80 | 1016.4 |
| 20260903173203 | 72 | 227 | 3.0 | 11.0 | 0.00 | 0.02 | 0.02 | 80 | 1016.4 |
| 20260903172647 | 72 | 164 | 4.0 | 11.0 | 0.00 | 0.02 | 0.02 | 80 | 1016.6 |
| 20260903172134 | 72 | 261 | 4.0 | 9.0 | 0.00 | 0.02 | 0.02 | 80 | 1016.5 |
| 20260903171627 | 72 | 280 | 5.0 | 12.0 | 0.00 | 0.02 | 0.02 | 80 | 1016.5 |
| 20260903171622 | 72 | 214 | 5.0 | 11.0 | 0.00 | 0.02 | 0.02 | 80 | 1016.5 |
| 20260903170723 | 73 | 263 | 5.0 | 12.0 | 0.00 | 0.02 | 0.02 | 79 | 1016.4 |
| 20260903170201 | 73 | 159 | 5.0 | 9.0 | 0.00 | 0.02 | 0.02 | 79 | 1016.6 |
| 20260903165651 | 73 | 237 | 5.0 | 12.0 | 0.00 | 0.02 | 0.02 | 78 | 1016.6 |
| 20260903165142 | 73 | 194 | 4.0 | 12.0 | 0.00 | 0.02 | 0.02 | 78 | 1016.6 |
| 20260903164632 | 73 | 233 | 5.0 | 12.0 | 0.00 | 0.02 | 0.02 | 77 | 1016.4 |
| 20260903164123 | 74 | 247 | 6.0 | 13.0 | 0.00 | 0.02 | 0.02 | 76 | 1016.2 |
| 20260903163617 | 74 | 188 | 5.0 | 13.0 | 0.00 | 0.02 | 0.02 | 77 | 1016.1 |
| 20260903163115 | 74 | 195 | 5.0 | 12.0 | 0.00 | 0.02 | 0.02 | 77 | 1016.1 |
| 20260903163110 | 74 | 176 | 5.0 | 12.0 | 0.00 | 0.02 | 0.02 | 77 | 1016.2 |
| 20260903162201 | 74 | 194 | 5.0 | 12.0 | 0.00 | 0.02 | 0.02 | 76 | 1016.4 |
| 20260903162155 | 74 | 247 | 4.0 | 10.0 | 0.00 | 0.02 | 0.02 | 77 | 1016.3 |
| 20260903161138 | 74 | 158 | 5.0 | 12.0 | 0.00 | 0.02 | 0.02 | 77 | 1016.3 |
| 20260903160633 | 74 | 241 | 4.0 | 14.0 | 0.00 | 0.02 | 0.02 | 76 | 1016.4 |
| 20260903160126 | 74 | 221 | 4.0 | 14.0 | 0.00 | 0.02 | 0.02 | 77 | 1016.5 |
| 20260903155618 | 74 | 167 | 4.0 | 12.0 | 0.00 | 0.02 | 0.02 | 77 | 1016.5 |
| 20260903155107 | 74 | 280 | 5.0 | 12.0 | 0.00 | 0.02 | 0.02 | 77 | 1016.5 |
| 20260903154605 | 73 | 224 | 4.0 | 9.0 | 0.00 | 0.02 | 0.02 | 76 | 1016.5 |
| 20260903154157 | 74 | 226 | 4.0 | 14.0 | 0.00 | 0.02 | 0.02 | 76 | 1016.6 |
| 20260903153638 | 74 | 260 | 6.0 | 14.0 | 0.00 | 0.02 | 0.02 | 75 | 1016.5 |
| 20260903153130 | 74 | 202 | 7.0 | 19.0 | 0.00 | 0.02 | 0.02 | 75 | 1016.5 |
| 20260903152623 | 74 | 208 | 6.0 | 19.0 | 0.00 | 0.02 | 0.02 | 75 | 1016.5 |
| 20260903152115 | 74 | 218 | 6.0 | 16.0 | 0.00 | 0.02 | 0.02 | 75 | 1016.4 |
| 20260903151610 | 74 | 227 | 8.0 | 20.0 | 0.00 | 0.02 | 0.02 | 75 | 1016.4 |
| 20260903151101 | 74 | 215 | 8.0 | 20.0 | 0.00 | 0.02 | 0.02 | 76 | 1016.4 |
| 20260903150557 | 73 | 248 | 6.0 | 16.0 | 0.00 | 0.02 | 0.02 | 76 | 1016.3 |
| 20260903150206 | 73 | 165 | 5.0 | 12.0 | 0.00 | 0.02 | 0.02 | 77 | 1016.4 |
| 20260903145645 | 73 | 239 | 5.0 | 14.0 | 0.00 | 0.02 | 0.02 | 76 | 1016.4 |
| 20260903145538 | 73 | 320 | 5.0 | 14.0 | 0.00 | 0.02 | 0.02 | 76 | 1016.5 |
| 20260903144628 | 74 | 208 | 5.0 | 13.0 | 0.00 | 0.02 | 0.02 | 77 | 1016.5 |
| 20260903144624 | 74 | 221 | 5.0 | 13.0 | 0.00 | 0.02 | 0.02 | 76 | 1016.5 |
| 20260903144115 | 74 | 201 | 5.0 | 13.0 | 0.00 | 0.02 | 0.02 | 76 | 1016.6 |
| 20260903143101 | 74 | 181 | 4.0 | 12.0 | 0.00 | 0.02 | 0.02 | 76 | 1016.6 |
| 20260903142555 | 74 | 230 | 6.0 | 12.0 | 0.00 | 0.02 | 0.02 | 76 | 1016.5 |
| 20260903142550 | 74 | 184 | 4.0 | 11.0 | 0.00 | 0.02 | 0.02 | 77 | 1016.4 |
| 20260903142147 | 74 | 204 | 5.0 | 12.0 | 0.00 | 0.02 | 0.02 | 76 | 1016.4 |
| 20260903141535 | 74 | 242 | 7.0 | 13.0 | 0.00 | 0.02 | 0.02 | 78 | 1016.5 |
| 20260903141230 | 74 | 221 | 5.0 | 13.0 | 0.00 | 0.02 | 0.02 | 78 | 1016.5 |
| 20260903140520 | 73 | 210 | 7.0 | 15.0 | 0.00 | 0.02 | 0.02 | 79 | 1016.6 |
| 20260903135607 | 73 | 169 | 6.0 | 15.0 | 0.00 | 0.02 | 0.02 | 80 | 1016.6 |
| 20260903135057 | 73 | 194 | 5.0 | 14.0 | 0.00 | 0.02 | 0.02 | 81 | 1016.5 |
| 20260903134548 | 73 | 222 | 5.0 | 14.0 | 0.00 | 0.02 | 0.02 | 82 | 1016.5 |
| 20260903134046 | 72 | 212 | 5.0 | 9.0 | 0.00 | 0.02 | 0.02 | 83 | 1016.6 |
| 20260903133637 | 71 | 239 | 4.0 | 10.0 | 0.00 | 0.02 | 0.02 | 83 | 1016.7 |
| 20260903133129 | 71 | 206 | 4.0 | 10.0 | 0.00 | 0.02 | 0.02 | 84 | 1016.6 |
| 20260903133020 | 70 | 181 | 4.0 | 9.0 | 0.00 | 0.02 | 0.02 | 85 | 1016.8 |
| 20260903132116 | 70 | 200 | 4.0 | 8.0 | 0.00 | 0.02 | 0.02 | 85 | 1016.8 |
| 20260903131606 | 70 | 210 | 4.0 | 11.0 | 0.00 | 0.02 | 0.02 | 84 | 1016.9 |
| 20260903131050 | 70 | 220 | 4.0 | 11.0 | 0.00 | 0.02 | 0.02 | 83 | 1016.9 |
| 20260903130545 | 70 | 238 | 3.0 | 11.0 | 0.00 | 0.02 | 0.02 | 81 | 1016.8 |
| 20260903130054 | 71 | 216 | 3.0 | 11.0 | 0.00 | 0.02 | 0.02 | 81 | 1016.8 |
| 20260903125636 | 71 | 179 | 4.0 | 11.0 | 0.00 | 0.02 | 0.02 | 80 | 1016.6 |
| 20260903125531 | 71 | 210 | 4.0 | 11.0 | 0.00 | 0.02 | 0.02 | 79 | 1016.6 |
| 20260903124626 | 71 | 209 | 5.0 | 12.0 | 0.00 | 0.02 | 0.02 | 80 | 1016.5 |
| 20260903124516 | 71 | 233 | 5.0 | 12.0 | 0.00 | 0.02 | 0.02 | 79 | 1016.6 |
| 20260903123613 | 71 | 260 | 5.0 | 10.0 | 0.00 | 0.02 | 0.02 | 80 | 1016.6 |
| 20260903123105 | 71 | 251 | 5.0 | 10.0 | 0.00 | 0.02 | 0.02 | 80 | 1016.5 |
| 20260903122557 | 71 | 184 | 4.0 | 11.0 | 0.00 | 0.02 | 0.02 | 79 | 1016.6 |
| 20260903122050 | 71 | 325 | 4.0 | 11.0 | 0.00 | 0.02 | 0.02 | 80 | 1016.6 |
| 20260903121529 | 71 | 244 | 3.0 | 9.0 | 0.00 | 0.02 | 0.02 | 80 | 1016.6 |
| 20260903121029 | 71 | 257 | 4.0 | 10.0 | 0.00 | 0.02 | 0.02 | 80 | 1016.5 |
| 20260903120618 | 71 | 274 | 5.0 | 14.0 | 0.00 | 0.02 | 0.02 | 79 | 1016.6 |
| 20260903120112 | 71 | 249 | 5.0 | 14.0 | 0.00 | 0.02 | 0.02 | 80 | 1016.6 |
| 20260903115601 | 71 | 241 | 5.0 | 12.0 | 0.00 | 0.02 | 0.02 | 80 | 1016.5 |
| 20260903115052 | 71 | 298 | 6.0 | 16.0 | 0.00 | 0.02 | 0.02 | 81 | 1016.5 |
| 20260903114544 | 70 | 224 | 6.0 | 16.0 | 0.00 | 0.02 | 0.02 | 82 | 1016.6 |
| 20260903114433 | 70 | 165 | 3.0 | 9.0 | 0.00 | 0.02 | 0.02 | 83 | 1016.6 |
| 20260903113519 | 69 | 255 | 3.0 | 8.0 | 0.00 | 0.02 | 0.02 | 84 | 1016.6 |
| 20260903113023 | 69 | 316 | 3.0 | 8.0 | 0.00 | 0.02 | 0.02 | 84 | 1016.7 |
| 20260903112613 | 68 | 310 | 3.0 | 11.0 | 0.00 | 0.02 | 0.02 | 85 | 1016.7 |
| 20260903112502 | 68 | 261 | 4.0 | 11.0 | 0.00 | 0.02 | 0.02 | 85 | 1016.7 |
| 20260903111559 | 68 | 213 | 5.0 | 12.0 | 0.00 | 0.02 | 0.02 | 85 | 1016.7 |
| 20260903111050 | 68 | 278 | 6.0 | 12.0 | 0.00 | 0.02 | 0.02 | 85 | 1016.7 |
| 20260903110541 | 68 | 226 | 7.0 | 13.0 | 0.00 | 0.02 | 0.02 | 86 | 1016.6 |
| 20260903110034 | 68 | 190 | 6.0 | 16.0 | 0.00 | 0.02 | 0.02 | 86 | 1016.6 |
| 20260903105524 | 68 | 229 | 6.0 | 16.0 | 0.00 | 0.02 | 0.02 | 86 | 1016.5 |
| 20260903105015 | 68 | 162 | 6.0 | 13.0 | 0.00 | 0.02 | 0.02 | 86 | 1016.5 |
| 20260903104509 | 68 | 225 | 6.0 | 15.0 | 0.00 | 0.02 | 0.02 | 86 | 1016.5 |
| 20260903104059 | 68 | 214 | 6.0 | 15.0 | 0.00 | 0.02 | 0.02 | 85 | 1016.5 |
| 20260903103552 | 68 | 207 | 6.0 | 14.0 | 0.00 | 0.02 | 0.02 | 86 | 1016.4 |
| 20260903103046 | 68 | 188 | 6.0 | 14.0 | 0.00 | 0.02 | 0.02 | 86 | 1016.4 |
| 20260903102539 | 68 | 233 | 5.0 | 12.0 | 0.00 | 0.02 | 0.02 | 86 | 1016.5 |
| 20260903102032 | 67 | 232 | 5.0 | 12.0 | 0.00 | 0.02 | 0.02 | 86 | 1016.5 |
| 20260903101520 | 67 | 224 | 6.0 | 13.0 | 0.00 | 0.02 | 0.02 | 86 | 1016.6 |
| 20260903101412 | 67 | 198 | 5.0 | 13.0 | 0.00 | 0.02 | 0.02 | 86 | 1016.6 |
| 20260903100516 | 67 | 206 | 5.0 | 12.0 | 0.00 | 0.02 | 0.02 | 86 | 1016.6 |
| 20260903100353 | 67 | 222 | 6.0 | 14.0 | 0.00 | 0.02 | 0.02 | 86 | 1016.5 |
| 20260903095545 | 67 | 224 | 6.0 | 14.0 | 0.00 | 0.02 | 0.02 | 86 | 1016.5 |
| 20260903095038 | 67 | 195 | 5.0 | 11.0 | 0.00 | 0.02 | 0.02 | 86 | 1016.4 |
| 20260903094529 | 67 | 232 | 4.0 | 10.0 | 0.00 | 0.02 | 0.02 | 86 | 1016.4 |
| 20260903094019 | 67 | 212 | 5.0 | 11.0 | 0.00 | 0.02 | 0.02 | 86 | 1016.2 |
| 20260903093509 | 67 | 302 | 5.0 | 13.0 | 0.00 | 0.02 | 0.02 | 86 | 1016.3 |
| 20260903092957 | 66 | 176 | 5.0 | 13.0 | 0.00 | 0.02 | 0.02 | 86 | 1016.3 |
| 20260903092952 | 66 | 187 | 5.0 | 11.0 | 0.00 | 0.02 | 0.02 | 87 | 1016.3 |
| 20260903092049 | 66 | 210 | 5.0 | 13.0 | 0.00 | 0.02 | 0.02 | 87 | 1016.2 |
| 20260903091540 | 66 | 193 | 6.0 | 13.0 | 0.00 | 0.02 | 0.02 | 87 | 1016.1 |
| 20260903091035 | 66 | 148 | 5.0 | 12.0 | 0.00 | 0.02 | 0.02 | 87 | 1016.0 |
| 20260903090527 | 66 | 201 | 5.0 | 12.0 | 0.00 | 0.02 | 0.02 | 87 | 1015.9 |
| 20260903090017 | 66 | 163 | 5.0 | 11.0 | 0.01 | 0.02 | 0.02 | 88 | 1015.9 |
| 20260903085511 | 65 | 195 | 6.0 | 11.0 | 0.02 | 0.02 | 0.02 | 88 | 1015.7 |
| 20260903085002 | 65 | 169 | 6.0 | 11.0 | 0.02 | 0.02 | 0.02 | 89 | 1015.8 |
| 20260903084451 | 65 | 195 | 6.0 | 11.0 | 0.02 | 0.02 | 0.02 | 88 | 1015.9 |
| 20260903084041 | 65 | 193 | 6.0 | 11.0 | 0.02 | 0.02 | 0.02 | 88 | 1016.1 |
| 20260903083532 | 65 | 218 | 5.0 | 11.0 | 0.02 | 0.02 | 0.02 | 88 | 1016.1 |
| 20260903083024 | 65 | 166 | 4.0 | 10.0 | 0.02 | 0.02 | 0.02 | 88 | 1016.2 |
| 20260903082617 | 65 | 165 | 5.0 | 10.0 | 0.02 | 0.02 | 0.02 | 88 | 1016.2 |
| 20260903082515 | 65 | 249 | 5.0 | 10.0 | 0.02 | 0.02 | 0.02 | 88 | 1016.1 |
| 20260903081459 | 65 | 195 | 5.0 | 10.0 | 0.02 | 0.02 | 0.02 | 88 | 1016.1 |
| 20260903080951 | 65 | 200 | 4.0 | 9.0 | 0.02 | 0.02 | 0.02 | 88 | 1016.1 |
| 20260903080541 | 65 | 203 | 5.0 | 10.0 | 0.02 | 0.02 | 0.02 | 87 | 1016.1 |
| 20260903080334 | 65 | 242 | 5.0 | 11.0 | 0.01 | 0.01 | 0.02 | 86 | 1016.1 |